Погода в Ыйване

Южная Корея     37°19′15″N   126°56′56″E
темп.,
°C
ветер,
м/с
пор.,
м/с
влажн.,
%
обл.,
%
осадки,
мм/ч
давл.,
гПа
погр.,
м
9 декабря, чт
чт900:00+7в1154100 0.0 103212
03:00+7в115783 0.0 103125
06:00+6в216080 0.0 103026
09:00+6вюв1256100 0.0 103184
12:00+9ююв1244100 0.0 1031344
15:00+9вюв2244100 0.0 1029345
18:00+9в1247100 0.0 102976
21:00+8в2453100 0.0 1028112
10 декабря, пт
пт1000:00+7в245792 0.0 1027110
03:00+7в1260100 0.0 102682
06:00+7ссв1165100 0.3 102573
09:00+7в127479 0.9 1026165
12:00+8юв117398 0.0 1025259
15:00+10сз247257 0.0 1025498
18:00+9з137937 0.0 1026136
21:00+8сз128023 0.0 102762
11 декабря, сб
сб1100:00+7сз1283100 0.0 102770
03:00+6з127771 0.0 102754
06:00+6ссз1176100 0.0 102718
09:00+6ссз1171100 0.0 102797
12:00+8з1255100 0.0 1027565
15:00+9з2355100 0.0 1025783
18:00+8зсз24637 0.0 1026483
21:00+7зсз2468100 0.0 1025189
12 декабря, вс
вс1200:00+6сз1270100 0.0 102538
03:00+6сз136793 0.0 1024160
06:00+5сз2761100 0.0 1024518
09:00+5сз495095 0.0 1025752
12:00+7зсз693895 0.0 10251231
15:00+6зсз711352 0.0 10241489
18:00+2сз712330 0.0 10261319
21:000сз713310 0.0 10281452
13 декабря, пн
пн1300:00−1сз512363 0.0 10291424
03:00−2сз612350 0.0 10291171
06:00−2сз511340 0.0 1029968
09:00−2сз510340 0.0 1030855
12:000сз47290 0.0 1029924
15:00+1сз45260 0.0 1027973
18:00+1зсз24340 0.0 1027820
21:000с12330 0.0 1028113